Retour au catalogue

COSMOS 1818 COOLANT

LostLEO
NORAD 50783·DEBRIS·🇷🇺 Russia

Lancé Feb 1, 1987 depuis Baikonur Cosmodrome

Loading…

Prochains Passages (prochaines 24 heures)

TLE

PériméSource: Space-Track

Époque: Nov 27, 2023, 05:07 UTC

1 50783U 87011AY  23331.21371102  .00003271  00000-0  11402-2 0  9992
2 50783  65.0109 284.9808 0019105 277.0393  82.8521 14.36648975720415

Suivez COSMOS 1818 COOLANT en temps réel avec AllMySat

Download on the App Store